Medford, OR

9:19 AM PST on November 13, 2019 (GMT -0800)
Rogue Valley International-Medford

Weather History for KMFR - October, 2019

Change the Weather History Date:

Wednesday, October 23, 2019

  Actual Average Record
Temperature  
Mean Temperature 54 °F 53 °F  
Max Temperature 66 °F 66 °F 82 °F (1929)
Min Temperature 42 °F 40 °F 25 °F (1916)
Degree Days  
Heating Degree Days 10 12  
Month to date heating degree days 260 181  
Since 1 July heating degree days 351 250  
Cooling Degree Days 0 0  
Month to date cooling degree days 0 8  
Year to date cooling degree days 932 827  
Growing Degree Days 4 (Base 50)    
Moisture  
Dew Point 42 °F    
Average Humidity 77    
Maximum Humidity 100    
Minimum Humidity 34    
Precipitation  
Precipitation 0.00 in 0.05 in 1.09 in (1951)
Month to date precipitation 0.65 0.69  
Year to date precipitation 17.23 11.40  
Snow  
Snow 0.00 in 0.00 in - ()
Month to date snowfall 0.0 0.0  
Since 1 July snowfall 0.0 0.0  
Snow Depth 0.00 in    
Sea Level Pressure  
Sea Level Pressure 30.36 in    
Wind  
Wind Speed 1 mph ()    
Max Wind Speed 8 mph    
Max Gust Speed 10 mph    
Visibility 8.8 miles    
Events      
T = Trace of Precipitation, MM = Missing Value Source: Averaged Metar Reports

Daily Weather History Graph

Daily Weather History Graph

Search for Another Location

Airport or City:

Astronomy

Oct. 23, 2019 Rise Set
Actual Time 7:33 AM PDT 6:17 PM PDT
Civil Twilight 7:04 AM PDT 6:45 PM PDT
Nautical Twilight 6:32 AM PDT 7:18 PM PDT
Astronomical Twilight 5:59 AM PDT 7:51 PM PDT
Moon 1:50 AM PDT (10/23) 4:19 PM PDT (10/23)
Length of Visible Light 11h 40m
Length of Day
10h 43m
Waning Crescent, 25% of the Moon is Illuminated
Oct 23
Waning Crescent
Oct 27
New
Nov 4
First Quarter
Nov 12
Full
Nov 19
Last Quarter

Hourly Weather History & Observations

Time (PDT) Temp. Windchill Dew Point Humidity Pressure Visibility Wind Dir Wind Speed Gust Speed Precip Events Conditions
12:53 AM 46.0 °F 44.8 °F 43.0 °F 89% 30.36 in 10.0 mi SE 3.5 mph - N/A   Clear
1:53 AM 46.0 °F - 43.0 °F 89% 30.36 in 10.0 mi Calm Calm - N/A   Clear
2:53 AM 45.0 °F - 43.0 °F 93% 30.37 in 9.0 mi Calm Calm - N/A   Mostly Cloudy
3:53 AM 45.0 °F - 43.0 °F 93% 30.36 in 10.0 mi Calm Calm - N/A   Scattered Clouds
4:53 AM 43.0 °F - 42.1 °F 97% 30.36 in 8.0 mi Calm Calm - N/A   Mostly Cloudy
5:53 AM 43.0 °F - 41.0 °F 93% 30.36 in 10.0 mi Calm Calm - N/A   Scattered Clouds
6:38 AM 42.1 °F 40.2 °F 39.9 °F 92% 30.37 in 5.0 mi West 3.5 mph - N/A   Mostly Cloudy
6:53 AM 43.0 °F 41.3 °F 41.0 °F 93% 30.38 in 10.0 mi North 3.5 mph - N/A   Overcast
6:59 AM 43.0 °F - 41.0 °F 93% 30.38 in 2.0 mi Calm Calm - N/A   Overcast
7:31 AM 43.0 °F - 42.1 °F 97% 30.38 in 5.0 mi Calm Calm - N/A   Overcast
7:53 AM 44.1 °F - 42.1 °F 93% 30.39 in 5.0 mi Calm Calm - N/A   Overcast
8:45 AM 45.0 °F 42.6 °F 43.0 °F 93% 30.39 in 5.0 mi North 4.6 mph - N/A   Overcast
8:53 AM 46.0 °F 43.9 °F 43.0 °F 89% 30.40 in 5.0 mi North 4.6 mph - N/A   Overcast
9:53 AM 46.9 °F - 43.0 °F 86% 30.41 in 10.0 mi North 4.6 mph - N/A   Overcast
10:43 AM 48.9 °F - 43.0 °F 80% 30.41 in 10.0 mi NNE 4.6 mph - N/A   Overcast
10:53 AM 48.9 °F - 42.1 °F 77% 30.42 in 10.0 mi NE 3.5 mph - N/A   Overcast
10:57 AM 48.9 °F - 42.1 °F 77% 30.41 in 10.0 mi Calm Calm - N/A   Overcast
11:53 AM 52.0 °F - 45.0 °F 77% 30.40 in 10.0 mi Calm Calm - N/A   Mostly Cloudy
12:29 PM 55.0 °F - 45.0 °F 69% 30.38 in 10.0 mi West 3.5 mph - N/A   Scattered Clouds
12:53 PM 57.0 °F - 46.0 °F 67% 30.37 in 10.0 mi Calm Calm - N/A   Clear
1:53 PM 61.0 °F - 45.0 °F 56% 30.34 in 10.0 mi Calm Calm - N/A   Clear
2:53 PM 63.0 °F - 43.0 °F 48% 30.31 in 10.0 mi Calm Calm - N/A   Clear
3:53 PM 64.0 °F - 42.1 °F 45% 30.30 in 10.0 mi Calm Calm - N/A   Clear
4:53 PM 66.0 °F - 37.9 °F 36% 30.28 in 10.0 mi Calm Calm - N/A   Clear
5:53 PM 66.0 °F - 39.0 °F 37% 30.28 in 10.0 mi Calm Calm - N/A   Clear
6:53 PM 59.0 °F - 37.9 °F 46% 30.29 in 10.0 mi SSW 5.8 mph - N/A   Clear
7:53 PM 55.9 °F - 41.0 °F 57% 30.29 in 10.0 mi SSW 4.6 mph - N/A   Clear
8:53 PM 50.0 °F - 42.1 °F 74% 30.30 in 10.0 mi Calm Calm - N/A   Clear
9:53 PM 48.9 °F - 41.0 °F 74% 30.32 in 10.0 mi Calm Calm - N/A   Clear
10:53 PM 46.9 °F - 41.0 °F 80% 30.32 in 10.0 mi SSE 3.5 mph - N/A   Clear
11:53 PM 45.0 °F - 39.9 °F 82% 30.33 in 10.0 mi Calm Calm - N/A   Clear